Regional Weather Roundup
Issued by NWS

Home | Current Version | Previous Version | Graphics & Text | Print | Product List | Glossary On
Versions: 1 2 3 4 5 6 7 8 9 10 11 12 13 14 15 16 17 18 19 20 21 22 23 24 25 26 27 28 29 30 31 32 33 34 35 36 37 38 39 40 41 42 43 44 45 46 47 48 49 50
000
ASUS43 KLOT 270300
RWRIL

ILLINOIS REGIONAL WEATHER ROUNDUP
NATIONAL WEATHER SERVICE CHICAGO/ROMEOVILLE IL
900 PM CST WED NOV 26 2014

NOTE: "FAIR" INDICATES FEW OR NO CLOUDS BELOW 12,000 FEET WITH NO
SIGNIFICANT WEATHER AND/OR OBSTRUCTIONS TO VISIBILITY.

* THESE STATIONS ARE NOT UNDER NWS QUALITY CONTROL. THEY ALSO MAY NOT
  REPORT WEATHER SUCH AS PRECIPITATION OR FOG.

ILZ001-002-007-009-015-016-024-270400-
NORTHWEST ILLINOIS

CITY           SKY/WX    TMP DP  RH WIND       PRES   REMARKS
MOLINE         CLOUDY    27  20  75 N5        30.22R WCI  22
STERLING*      CLOUDY    27  19  74 N3        30.21R
$$

ILZ003-004-008-010-011-017-018-270400-
NORTH CENTRAL ILLINOIS

CITY           SKY/WX    TMP DP  RH WIND       PRES   REMARKS
ROCKFORD       CLOUDY    23  18  81 N9        30.22R HAZE    WCI  13
$$

ILZ005-006-012>014-019>023-270400-
NORTHEAST ILLINOIS

CITY           SKY/WX    TMP DP  RH WIND       PRES   REMARKS
CHICAGO-OHARE  CLOUDY    29  23  78 NW9       30.15R WCI  20
CHICAGO-MIDWAY CLOUDY    30  23  75 NW6       30.16R WCI  24
AURORA         CLOUDY    27  22  81 NW10      30.17R HAZE    WCI  17
WAUKEGAN       CLOUDY    26  21  81 NW6       30.16R HAZE    WCI  19
DUPAGE AIRPORT CLOUDY    28  23  81 N5        30.15R WCI  23
WHEELING       CLOUDY    28  23  81 NW8       30.18R WCI  20
NORTHERLY ISL    N/A     31  22  69 N7          N/A  WCI  24
$$

LMZ740>746-270400-
SOUTHERN LAKE MICHIGAN

STATION/POSITION SKY/WX   TEMP    WIND        PRES    VSBY  WAVE
                          AIR SEA DIR/SP/G                  HT/PER
                          (F)     (DEG/KT/KT) (MB)    (MI)  (FT/S)
SOUTHERN BUOY              33 42   20/  2/  4 1021.1R         1
WAUKEGAN HARBOR            28     320/ 11/ 15   N/A
HARRISON CRIB              31      20/  8/ 10   N/A
BURNHAM HARBOR             31     360/  5/ 12   N/A
CALUMET HARBOR             31      20/  5/  7 1019.6R
MICHIGAN CITY              27     100/  3/  5   N/A
$$

ILZ025>027-034>036-040-047-049-050-058-095>099-270400-
WEST-CENTRAL ILLINOIS

CITY           SKY/WX    TMP DP  RH WIND       PRES   REMARKS
QUINCY         LGT SNOW  30  27  88 N14       30.16R FOG     WCI  19
$$

ILZ028>032-037-038-041>044-048-051>054-059>061-270400-
CENTRAL ILLINOIS

CITY           SKY/WX    TMP DP  RH WIND       PRES   REMARKS
DECATUR        LGT SNOW  29  26  89 N9        30.13R FOG     WCI  20
PEORIA         LGT SNOW  29  23  78 N7        30.18R WCI  22
SPRINGFIELD    LGT SNOW  29  27  92 NE10      30.14R FOG     WCI  20
TAYLORVILLE    NOT AVBL
$$

ILZ033-039-045-046-055>057-062-063-270400-
EAST-CENTRAL ILLINOIS

CITY           SKY/WX    TMP DP  RH WIND       PRES   REMARKS
CHAMPAIGN      CLOUDY    28  24  85 N10       30.12R WCI  19
MATTOON        CLOUDY    30  25  81 N8        30.09R WCI  22
$$

ILZ079-100>102-270400-
SOUTHWEST ILLINOIS

CITY           SKY/WX    TMP DP  RH WIND       PRES   REMARKS
BELLEVILLE     MIX PCPN  32  32 100 NW2       30.09R FOG
CAHOKIA*       CLOUDY    33  32  96 CALM      30.10R FOG
$$

ILZ064>066-069>071-074>076-080>082-084>086-088>090-092>094-270400-
SOUTH-CENTRAL ILLINOIS

CITY           SKY/WX    TMP DP  RH WIND       PRES   REMARKS
CARBONDALE     CLOUDY    33  31  92 W6        30.08R FOG     WCI  28
MT. VERNON     CLOUDY    34  28  80 NE5       30.08R WCI  30
$$

ILZ067-068-072-073-078-083-087-091-270400-
SOUTHEAST ILLINOIS

CITY           SKY/WX    TMP DP  RH WIND       PRES   REMARKS
LAWRENCEVILLE  LGT SNOW  32  31  96 N8        30.08S FOG     WCI  25
$$

ABBREVIATIONS USED IN REMARKS
   TC - TEMPERATURE IN CELSIUS
  WCI - WIND CHILL INDEX
   HX - HEAT INDEX
  VSB - VISIBILITY
$$




USA.gov is the U.S. government's official web portal to all federal, state and local government web resources and services.